Rome, NY

7:48 PM EST on December 10, 2017 (GMT -0500)
Griffiss

Weather History for KRME - October, 2012

Change the Weather History Date:

Monday, October 1, 2012

  Actual Average Record
Temperature  
Mean Temperature 59 °F -  
Max Temperature 66 °F 65 °F 81 °F (1988)
Min Temperature 51 °F 46 °F 27 °F (1993)
Degree Days  
Heating Degree Days 6    
Growing Degree Days 9 (Base 50)    
Moisture  
Dew Point 52 °F    
Average Humidity 88    
Maximum Humidity 100    
Minimum Humidity 60    
Precipitation  
Precipitation 0.16 in - - ()
Sea Level Pressure  
Sea Level Pressure 29.81 in    
Wind  
Wind Speed 10 mph (West)    
Max Wind Speed 17 mph    
Max Gust Speed 24 mph    
Visibility 8 miles    
Events Rain    
Averages and records for this station are not official NWS values.
T = Trace of Precipitation, MM = Missing Value Source: NWS Daily Summary

Daily Weather History Graph

Daily Weather History Graph

Search for Another Location

Airport or City:

Trip Planner

Search our weather history database for the weather conditions in past years. The results will help you decide how hot, cold, wet, or windy it might be!

Date:

Astronomy

Oct. 01, 2012 Rise Set
Actual Time 6:59 AM EDT 6:41 PM EDT
Civil Twilight 6:31 AM EDT 7:10 PM EDT
Nautical Twilight 5:58 AM EDT 7:43 PM EDT
Astronomical Twilight 5:24 AM EDT 8:16 PM EDT
Moon 7:13 PM EDT (10/1) 8:30 AM EDT (10/1)
Length of Visible Light 12h 39m
Length of Day
11h 42m
Full, 98% of the Moon is Illuminated
Oct 1
Full
Oct 8
Last Quarter
Oct 15
New
Oct 21
First Quarter
Oct 29
Full

Hourly Weather History & Observations

Time (EDT) Temp. Dew Point Humidity Pressure Visibility Wind Dir Wind Speed Gust Speed Precip Events Conditions
12:36 AM 52.0 °F 50.0 °F 93% 29.75 in 10.0 mi West 9.2 mph - 0.01 in Rain Light Rain
12:44 AM 52.0 °F 50.0 °F 93% 29.75 in 10.0 mi West 9.2 mph - 0.01 in Rain Light Rain
12:53 AM 52.0 °F 50.0 °F 93% 29.75 in 10.0 mi West 9.2 mph - 0.01 in   Overcast
1:04 AM 52.0 °F 50.0 °F 93% 29.75 in 10.0 mi West 9.2 mph - N/A   Overcast
1:23 AM 52.0 °F 50.0 °F 93% 29.75 in 10.0 mi West 10.4 mph - 0.00 in Rain Light Rain
1:40 AM 52.0 °F 50.0 °F 93% 29.74 in 10.0 mi West 9.2 mph - 0.00 in Rain Light Rain
1:53 AM 53.1 °F 51.1 °F 93% 29.74 in 10.0 mi West 9.2 mph - 0.01 in Rain Light Rain
2:02 AM 53.1 °F 51.1 °F 93% 29.74 in 9.0 mi West 9.2 mph - 0.00 in Rain Light Rain
2:53 AM 52.0 °F 51.1 °F 97% 29.73 in 6.0 mi WSW 10.4 mph - 0.01 in Rain Light Rain
3:00 AM 52.0 °F 51.1 °F 97% 29.73 in 5.0 mi West 12.7 mph - 0.01 in Rain Light Rain
3:53 AM 53.1 °F 51.1 °F 93% 29.72 in 10.0 mi West 12.7 mph - 0.04 in   Overcast
5:53 AM 52.0 °F 51.1 °F 97% 29.73 in 4.0 mi WSW 11.5 mph 23.0 mph 0.01 in Rain Light Rain
6:53 AM 53.1 °F 51.1 °F 93% 29.74 in 4.0 mi West 13.8 mph 23.0 mph 0.02 in Rain Light Rain
7:53 AM 53.1 °F 51.1 °F 93% 29.77 in 5.0 mi West 10.4 mph - 0.00 in Rain Light Rain
8:53 AM 54.0 °F 52.0 °F 93% 29.78 in 10.0 mi West 11.5 mph 19.6 mph 0.01 in   Overcast
9:53 AM 57.0 °F 54.0 °F 89% 29.79 in 10.0 mi West 15.0 mph 20.7 mph N/A   Overcast
10:09 AM 57.0 °F 53.1 °F 87% 29.80 in 9.0 mi WNW 16.1 mph 19.6 mph N/A   Overcast
10:19 AM 55.9 °F 54.0 °F 93% 29.81 in 2.5 mi West 15.0 mph - 0.00 in Rain Light Rain
10:50 AM 55.4 °F 55.4 °F 100% 29.82 in 3.0 mi WNW 12.7 mph - 0.04 in Rain Light Rain
10:53 AM 57.0 °F 55.0 °F 93% 29.81 in 6.0 mi West 11.5 mph - 0.04 in Rain Light Rain
11:05 AM 57.0 °F 54.0 °F 89% 29.82 in 10.0 mi WNW 11.5 mph - 0.00 in   Overcast
11:15 AM 55.9 °F 54.0 °F 93% 29.82 in 4.0 mi West 10.4 mph - 0.00 in Rain Light Rain
11:53 AM 59.0 °F 55.9 °F 90% 29.82 in 10.0 mi West 11.5 mph - 0.01 in   Mostly Cloudy
12:26 PM 60.1 °F 52.0 °F 75% 29.82 in 10.0 mi West 17.3 mph 24.2 mph 0.00 in Rain Light Rain
12:46 PM 61.0 °F 53.1 °F 75% 29.83 in 10.0 mi West 13.8 mph 23.0 mph 0.00 in   Overcast
12:53 PM 61.0 °F 53.1 °F 75% 29.83 in 10.0 mi West 15.0 mph 20.7 mph 0.00 in   Overcast
1:53 PM 63.0 °F 54.0 °F 72% 29.83 in 10.0 mi West 11.5 mph - N/A   Overcast
2:53 PM 64.0 °F 54.0 °F 70% 29.85 in 10.0 mi West 10.4 mph - N/A   Mostly Cloudy
3:53 PM 66.0 °F 53.1 °F 63% 29.85 in 10.0 mi West 15.0 mph - N/A   Scattered Clouds
4:53 PM 66.0 °F 52.0 °F 60% 29.86 in 10.0 mi West 9.2 mph - N/A   Clear
6:53 PM 61.0 °F 52.0 °F 72% 29.90 in 10.0 mi West 4.6 mph - N/A   Mostly Cloudy
7:53 PM 55.0 °F 53.1 °F 93% 29.91 in 10.0 mi NNE 3.5 mph - N/A   Partly Cloudy
8:53 PM 54.0 °F 52.0 °F 93% 29.94 in 10.0 mi Calm Calm - N/A   Clear
9:53 PM 53.1 °F 51.1 °F 93% 29.95 in 10.0 mi Calm Calm - N/A   Clear
11:53 PM 51.1 °F 48.9 °F 92% 29.96 in 10.0 mi East 3.5 mph - N/A   Clear